SCP
0 0 0 0 0 0 0 0 0 0 0 0 0 0 0 0 0 0 0 0 0 0 0 0 0 0 0 0 0 0 0 0 1 1 1 1 1 1 2 2 1 1 2 2
0 0 0 0 0 0 0 0 0 0 0 0 0 0 0 0 0 0 0 0 0 0 0 0 0 0 0 0 0 0 0 0 0 1 1 1 1 1 1 1 1 1 1 2
0 0 0 0 0 0 0 0 0 0 0 0 0 0 0 0 0 0 0 0 0 0 0 0 0 0 0 0 0 0 0 0 0 0 0 0 1 1 1 1 1 1 1 1
0 0 0 0 0 0 0 0 0 0 0 0 0 0 0 0 0 0 0 0 0 0 0 0 0 0 0 0 0 0 0 0 0 0 0 0 0 0 1 1 0 0 0 1
0 0 0 0 0 0 0 0 0 0 0 0 0 0 0 0 0 0 0 0 0 0 0 0 0 0 0 0 0 0 0 0 0 0 0 0 0 0 0 0 0 0 0 0
0 0 0 0 0 0 0 0 0 0 0 0 0 0 0 0 0 0 0 0 0 0 0 0 0 0 0 0 0 0 0 0 0 0 0 0 0 0 0 0 0 0 0 0
0 0 0 0 0 0 0 0 0 0 0 0 0 0 0 0 0 0 0 0 0 0 0 0 0 0 0 0 0 0 0 0 0 0 0 0 0 0 0 0 0 0 0 0
0 0 0 0 0 0 0 0 0 0 0 0 0 0 0 0 0 0 0 0 0 0 0 0 0 0 0 0 0 0 0 0 0 0 0 0 0 0 0 0 0 0 0 0
0 0 0 0 0 0 0 0 0 0 0 0 0 0 0 0 0 0 0 0 0 0 0 0 0 0 0 0 0 0 0 0 0 0 0 0 0 0 0 0 0 0 0 0
0 0 0 0 0 0 0 0 0 0 0 0 0 0 0 0 0 0 0 0 0 0 0 0 0 0 0 0 0 0 0 0 0 0 0 0 0 0 0 0 0 0 0 0
0 0 0 0 0 0 0 0 0 0 0 0 0 0 0 0 0 0 0 0 0 0 0 0 0 0 0 0 0 0 0 0 0 0 0 0 0 0 0 0 0 0 0 0
0 0 0 0 0 0 0 0 0 0 0 0 0 0 0 0 0 0 0 0 0 0 0 0 0 0 0 0 0 0 0 0 0 0 0 0 0 0 0 0 0 0 0 0
0 0 0 0 0 0 0 0 0 0 0 0 0 0 0 0 0 0 0 0 0 0 0 0 0 0 0 0 0 0 0 0 0 0 0 0 0 0 0 0 0 0 0 0
0 0 0 0 0 0 0 0 0 0 0 0 0 0 0 0 0 0 0 0 0 0 0 0 0 0 0 0 0 0 0 0 0 0 0 0 0 0 0 0 0 0 0 0
0 0 0 0 0 0 0 0 0 0 0 0 0 0 0 0 0 0 0 0 0 0 0 0 0 0 0 0 0 0 0 0 0 0 0 0 0 0 0 0 0 0 0 0
0 0 0 0 0 0 0 0 0 0 0 0 0 0 0 0 0 0 0 0 0 0 0 0 0 0 0 0 0 0 0 0 0 0 0 0 0 0 0 0 0 0 0 0
0 0 0 0 0 0 0 0 0 0 0 0 0 0 0 0 0 0 0 0 0 0 0 0 0 0 0 0 0 0 0 0 0 0 0 0 0 0 0 0 0 0 0 0
0 0 0 0 0 0 0 0 0 0 0 0 0 0 0 0 0 0 0 0 0 0 0 0 0 0 0 0 0 0 0 0 0 0 0 0 0 0 0 0 0 0 0 0
0 0 0 0 0 0 0 0 0 0 0 0 0 0 0 0 0 0 0 0 0 0 0 0 0 0 0 0 0 0 0 0 0 0 0 0 0 0 0 0 0 0 0 0
0 0 0 0 0 0 0 0 0 0 0 0 0 0 0 0 0 0 0 0 0 0 0 0 0 0 0 0 0 0 0 0 0 0 0 0 0 0 0 0 0 0 0 0
0 0 0 0 0 0 0 0 0 0 0 0 0 0 0 0 0 0 0 0 0 0 0 0 0 0 0 0 0 0 0 0 0 0 0 0 0 0 0 0 0 0 0 0
0 0 0 0 0 0 0 0 0 0 0 0 0 0 0 0 0 0 0 0 0 0 0 0 0 0 0 0 0 0 0 0 0 0 0 0 0 0 0 0 0 0 0 0
0 0 0 0 0 0 0 0 0 0 0 0 0 0 0 0 0 0 0 0 0 0 0 0 0 0 0 0 0 0 0 0 0 0 0 0 0 0 0 0 0 0 0 0
0 0 0 0 0 0 0 0 0 0 0 0 0 0 0 0 0 0 0 0 0 0 0 0 0 0 0 0 0 0 0 0 0 0 0 0 0 0 0 0 0 0 0 0
0 0 0 0 0 0 0 0 0 0 0 0 0 0 0 0 0 0 0 0 0 0 0 0 0 0 0 0 0 0 0 0 0 0 0 0 0 0 0 0 0 0 0 0
0 0 0 0 0 0 0 0 0 0 0 0 0 0 0 0 0 0 0 0 0 0 0 0 0 0 0 0 0 0 0 0 0 0 0 0 0 0 0 0 0 0 0 0
Wind_Speed
2 1 2 3 4 4 4 5 8 7 3 5 9 12 11 8 7 8 8 8 7 7 5 3 3 2 2 2 2 1 2 1 1 0 1 1 1 1 0 0 1 1 1 1
2 2 3 3 3 3 4 6 8 6 3 5 9 13 12 9 9 8 9 8 8 7 4 3 3 2 2 2 1 1 2 1 1 1 1 1 1 1 0 0 1 1 1 1
3 0 2 2 2 3 5 7 7 7 6 5 9 11 9 6 6 6 7 7 7 7 6 4 3 2 2 2 2 2 2 1 1 1 1 0 1 1 1 0 0 1 1 1
1 1 1 2 3 5 6 5 6 6 6 5 4 9 7 5 5 5 6 5 5 5 5 4 3 3 3 3 3 2 2 1 1 1 1 2 2 2 2 1 1 1 1 1
1 2 2 3 4 4 3 2 4 6 6 7 6 9 7 3 6 6 5 5 4 4 4 4 4 4 4 3 3 3 2 1 1 1 2 3 2 2 1 1 2 1 1 1
2 2 3 2 2 2 2 1 2 4 5 8 8 9 9 5 6 5 3 2 2 3 3 4 3 3 3 2 2 2 2 2 1 1 1 2 3 2 2 2 2 2 1 1
3 2 1 1 1 2 2 2 3 3 5 7 3 8 9 3 3 3 3 2 2 3 3 3 3 3 3 2 2 2 2 2 1 1 2 2 3 3 3 2 2 2 1 1
3 4 3 2 3 3 4 5 4 5 6 5 4 9 5 2 2 2 2 2 2 3 3 3 3 3 3 3 3 2 3 2 2 2 2 2 2 2 1 2 2 2 2 2
3 4 1 2 2 3 4 5 3 3 4 7 8 7 7 3 3 3 2 2 3 4 3 3 3 3 2 3 3 3 3 3 3 2 2 2 2 2 2 2 2 2 2 2
2 4 3 2 2 2 3 3 3 4 5 8 8 8 6 4 5 4 3 3 4 4 4 3 3 3 2 2 3 2 2 3 3 2 2 2 2 2 2 2 2 2 2 2
2 4 3 3 6 6 5 5 5 4 5 6 8 7 1 4 3 3 4 3 4 4 4 3 3 3 2 2 2 2 2 2 2 2 2 2 2 2 2 2 2 2 2 2
2 3 5 6 3 4 7 7 7 6 6 7 8 9 1 2 2 3 4 4 4 5 4 4 3 3 3 2 2 2 2 2 2 2 2 2 2 2 2 2 2 2 2 2
3 3 3 4 4 3 5 6 7 5 5 7 10 10 1 2 3 4 5 5 5 4 4 4 4 4 3 3 3 2 2 2 2 2 2 2 2 2 2 2 2 2 2 2
2 5 8 10 7 4 7 8 9 8 8 10 15 16 10 9 8 8 8 7 6 5 5 5 4 4 4 4 3 3 3 2 2 2 2 2 2 2 2 2 2 2 2 2
3 6 7 10 9 8 11 12 12 15 15 15 16 17 17 13 11 10 9 8 7 6 5 5 5 5 5 4 4 3 3 3 2 2 2 3 2 2 2 2 2 2 2 2
3 5 4 8 8 9 13 15 16 16 17 19 19 20 15 13 10 9 9 8 8 8 6 6 6 5 5 5 4 4 3 3 2 3 3 3 2 2 2 2 2 1 2 2
4 4 5 7 4 6 13 14 15 13 12 13 17 17 12 11 10 10 9 8 9 8 8 7 6 6 5 5 4 4 4 3 2 3 3 2 2 2 2 2 2 2 2 2
7 5 4 4 3 13 8 2 8 12 13 13 14 13 12 12 10 8 8 8 9 8 7 7 5 5 5 4 4 4 3 2 2 3 3 2 2 2 2 2 2 2 2 2
8 7 5 4 8 13 10 5 6 8 12 11 14 14 12 9 8 9 6 7 8 7 6 5 5 5 5 4 3 3 3 3 3 3 3 3 2 2 2 3 3 3 3 3
5 6 6 6 9 12 7 2 2 3 10 6 8 10 8 5 7 6 4 4 5 4 4 4 4 4 4 3 3 3 3 3 3 3 3 3 3 3 3 3 3 3 3 3
6 7 11 11 12 13 6 3 5 7 7 2 6 8 6 7 8 7 5 5 4 4 4 3 3 3 3 3 2 3 3 4 4 3 3 3 3 3 3 3 3 2 2 2
10 9 10 9 11 13 4 7 9 7 3 4 6 6 7 8 8 7 6 5 4 4 3 3 3 3 3 2 2 3 4 3 2 2 2 3 3 3 3 3 2 2 2 2
11 11 8 11 11 4 6 8 6 4 6 6 7 7 7 7 8 7 6 6 5 4 4 3 3 3 3 2 3 4 4 2 2 2 2 2 2 2 2 3 3 2 2 2
7 5 6 9 11 9 8 8 7 7 8 8 7 7 7 8 8 7 6 5 5 4 3 3 3 3 3 3 3 3 3 2 2 2 2 2 2 2 2 2 2 3 3 3
8 7 7 11 10 8 9 9 9 8 7 8 8 7 8 8 8 7 6 5 5 4 3 3 3 4 4 3 3 2 2 2 2 2 2 2 2 2 2 2 2 3 3 3
7 9 9 11 7 8 9 7 7 8 9 9 9 8 7 7 7 7 6 5 4 4 3 3 4 4 3 3 3 2 2 2 2 2 2 2 2 2 2 2 2 3 3 4
Wind_Direction
29 146 197 227 235 257 249 251 263 272 289 271 258 266 272 264 258 259 259 259 259 259 268 265 260 252 246 250 261 278 283 259 178 201 224 221 207 190 142 92 112 135 136 154
144 206 258 255 223 226 237 251 268 277 274 271 273 272 270 261 253 256 257 257 257 262 265 268 269 254 243 242 253 276 284 266 219 225 233 235 207 194 196 18 161 159 167 174
195 256 253 212 211 226 245 252 266 278 296 258 278 270 250 245 243 254 257 261 264 263 259 256 256 250 249 248 253 259 266 257 242 217 175 118 134 121 148 252 226 209 209 190
206 250 226 222 241 243 253 258 260 267 273 268 266 281 257 242 246 252 258 262 265 265 263 263 263 259 259 259 253 247 254 250 242 198 186 189 198 189 211 225 220 221 223 207
211 239 243 238 251 240 252 290 253 250 255 266 242 259 266 219 249 256 263 266 271 274 269 268 268 264 259 258 251 244 242 246 248 225 209 212 224 218 199 195 200 209 218 214
270 267 258 251 298 232 210 236 229 226 234 250 237 242 268 232 243 258 275 303 305 297 284 281 285 283 270 265 252 241 237 241 239 235 227 228 233 222 200 196 197 218 235 229
273 245 238 225 208 178 219 240 259 237 227 245 207 237 257 256 252 266 280 301 313 317 306 297 294 288 278 269 260 247 238 254 258 250 243 244 242 227 216 214 216 228 244 254
246 250 214 229 238 223 220 233 244 263 266 274 232 243 257 277 287 283 282 295 323 334 330 313 298 288 280 267 255 247 241 247 251 247 252 253 250 237 236 235 238 240 255 261
237 249 284 260 269 223 212 224 263 268 287 271 253 254 266 239 248 248 264 303 318 326 328 324 319 304 288 271 256 249 245 244 247 251 257 255 251 256 261 253 245 250 273 287
236 258 257 251 218 226 257 208 207 227 253 262 265 258 254 218 227 237 262 288 310 322 322 323 323 312 293 276 268 256 253 249 246 247 253 263 264 260 257 248 246 260 269 269
239 234 261 239 220 218 195 206 220 230 248 258 271 266 251 227 216 231 250 273 304 312 308 310 313 311 301 292 284 273 267 269 267 261 260 264 267 265 260 260 262 260 256 257
215 232 250 251 258 284 239 225 209 227 240 243 263 270 98 218 246 256 267 282 300 304 302 305 311 314 303 292 286 276 273 275 284 284 272 266 267 262 254 261 271 272 266 258
173 201 266 261 214 203 234 232 229 241 241 236 245 260 118 230 267 271 277 288 296 297 298 303 309 308 300 292 286 281 282 284 291 295 293 283 277 270 265 271 277 280 282 285
207 214 231 255 276 242 242 240 227 218 232 243 245 262 270 271 274 279 282 285 290 291 290 297 303 303 301 293 286 284 287 286 285 283 283 285 282 278 278 282 283 284 287 287
208 237 243 263 274 262 253 249 237 232 239 247 260 264 272 276 278 280 281 279 278 280 284 289 293 296 295 292 289 288 288 289 280 273 273 277 282 280 282 287 289 289 290 287
213 241 254 266 264 266 264 253 244 245 248 251 263 269 273 283 281 275 272 270 270 272 274 279 283 284 286 287 286 285 286 286 274 262 264 275 277 272 270 278 281 283 290 293
203 208 238 260 282 281 259 240 232 235 236 242 251 261 279 282 276 273 273 268 267 270 273 275 275 273 278 283 281 278 276 276 264 261 260 263 267 267 268 266 264 266 273 276
200 202 230 264 258 247 252 220 227 238 248 242 253 266 273 276 282 281 271 264 264 265 271 272 271 272 276 282 282 281 274 261 255 259 263 260 262 265 266 260 260 271 271 262
212 201 213 227 251 268 272 241 217 231 258 246 250 263 275 289 282 267 262 258 258 262 266 271 269 271 276 272 266 260 259 253 253 258 265 270 267 262 258 255 262 271 269 267
211 209 216 220 240 252 265 201 193 228 263 242 237 254 274 290 273 286 300 271 263 265 269 273 271 269 268 273 258 244 250 249 253 262 269 271 263 255 252 251 260 270 268 267
191 205 218 228 244 261 264 178 168 224 267 276 236 246 253 253 269 300 298 281 271 266 276 279 266 260 263 268 244 240 248 254 266 273 270 268 262 256 250 248 254 256 259 264
196 201 211 215 232 250 188 171 210 245 285 263 256 254 254 268 284 290 285 278 275 276 281 278 267 268 274 260 238 246 259 275 278 268 263 264 262 257 244 238 242 244 244 251
216 213 211 211 232 262 189 214 239 260 261 265 264 266 261 271 276 279 278 274 270 268 273 273 264 273 282 270 249 252 270 278 266 256 256 259 262 256 242 228 223 229 235 239
229 228 232 248 255 256 248 255 264 261 261 268 270 266 258 264 269 273 274 273 271 268 268 270 266 268 280 287 278 270 277 274 246 240 253 257 256 258 251 239 229 227 227 232
235 203 228 251 264 273 261 251 257 263 267 269 270 264 257 257 259 260 263 264 264 267 269 262 256 259 273 290 291 294 286 263 245 244 248 255 257 259 257 255 254 250 249 252
218 213 223 246 247 249 265 262 252 254 259 259 262 264 259 250 251 253 253 254 258 263 267 265 262 261 270 275 274 278 274 250 230 235 240 243 246 249 248 252 276 279 272 274